Weather History for Ozona, TX

Change the Weather History Date:

Thursday, January 24, 2013

  Actual Average Record
Temperature  
Mean Temperature 58 °F -  
Max Temperature 78 °F 61 °F 78 °F (2013)
Min Temperature 37 °F 29 °F 24 °F (2014)
Degree Days  
Heating Degree Days 8    
Growing Degree Days 8 (Base 50)    
Moisture  
Dew Point 45 °F    
Average Humidity 70    
Maximum Humidity 100    
Minimum Humidity 28    
Precipitation  
Precipitation 0.00 in - - ()
Sea Level Pressure  
Sea Level Pressure 30.21 in    
Wind  
Wind Speed 4 mph (SSW)    
Max Wind Speed 16 mph    
Max Gust Speed 21 mph    
Visibility 8 miles    
Events Fog    
Averages and records for this station are not official NWS values.
T = Trace of Precipitation, MM = Missing Value Source: NWS Daily Summary

Daily Weather History Graph

Daily Weather History Graph

Search for Another Location

Airport:

Trip Planner

Search our weather history database for the weather conditions in past years. The results will help you decide how hot, cold, wet, or windy it might be!

Date:

Astronomy

Jan. 24, 2013 Rise Set
Actual Time 7:40 AM CST 6:14 PM CST
Civil Twilight 7:14 AM CST 6:39 PM CST
Nautical Twilight 6:45 AM CST 7:08 PM CST
Astronomical Twilight 6:16 AM CST 7:37 PM CST
Moon 4:19 PM CST (1/24) 5:36 AM CST (1/24)
Length of Visible Light 11h 25m
Length of Day
10h 33m
Waxing Gibbous, 94% of the Moon is Illuminated
Jan 24
Waxing Gibbous
Jan 26
Full
Feb 3
Last Quarter
Feb 10
New
Feb 17
First Quarter

Hourly Weather History & Observations

Time (CST) Temp. Windchill Dew Point Humidity Pressure Visibility Wind Dir Wind Speed Gust Speed Precip Events Conditions
12:15 AM 42.8 °F - 41.0 °F 93% 30.25 in 10.0 mi Calm Calm - N/A   Clear
12:35 AM 44.6 °F - 41.0 °F 87% 30.25 in 10.0 mi Calm Calm - N/A   Clear
12:55 AM 42.8 °F - 42.8 °F 100% 30.25 in 10.0 mi Calm Calm - N/A   Clear
1:15 AM 42.8 °F - 41.0 °F 93% 30.25 in 10.0 mi Calm Calm - N/A   Clear
1:35 AM 42.8 °F - 41.0 °F 93% 30.25 in 10.0 mi Calm Calm - N/A   Clear
1:55 AM 42.8 °F 41.1 °F 41.0 °F 93% 30.25 in 10.0 mi NNE 3.5 mph - N/A   Clear
2:15 AM 42.8 °F - 41.0 °F 93% 30.25 in 10.0 mi Calm Calm - N/A   Clear
2:35 AM 42.8 °F - 41.0 °F 93% 30.25 in 7.0 mi Calm Calm - N/A   Clear
2:55 AM 41.0 °F - 39.2 °F 93% 30.25 in 10.0 mi Calm Calm - N/A   Clear
3:15 AM 42.8 °F - 41.0 °F 93% 30.25 in 10.0 mi Calm Calm - N/A   Clear
3:35 AM 42.8 °F - 41.0 °F 93% 30.25 in 5.0 mi Calm Calm - N/A   Mostly Cloudy
3:55 AM 41.0 °F - 37.4 °F 87% 30.25 in 10.0 mi Calm Calm - N/A   Mostly Cloudy
4:15 AM 41.0 °F - 39.2 °F 93% 30.24 in 4.0 mi Calm Calm - N/A   Mostly Cloudy
4:35 AM 39.2 °F - 39.2 °F 100% 30.24 in 2.0 mi Calm Calm - N/A   Overcast
4:55 AM 39.2 °F - 39.2 °F 100% 30.24 in 1.8 mi Calm Calm - N/A   Overcast
5:15 AM 37.4 °F - 37.4 °F 100% 30.24 in 0.8 mi Calm Calm - N/A   Overcast
5:35 AM 39.2 °F - 37.4 °F 93% 30.24 in 0.5 mi Calm Calm - N/A Fog Fog
5:55 AM 39.2 °F - 37.4 °F 93% 30.24 in 0.2 mi Calm Calm - N/A Fog Fog
6:15 AM 39.2 °F - 37.4 °F 93% 30.25 in 0.2 mi Calm Calm - N/A Fog Fog
6:35 AM 39.2 °F - 37.4 °F 93% 30.24 in 0.2 mi Calm Calm - N/A Fog Fog
6:55 AM 37.4 °F - 37.4 °F 100% 30.24 in 0.2 mi Calm Calm - N/A Fog Fog
7:15 AM 39.2 °F - 39.2 °F 100% 30.24 in 0.2 mi Calm Calm - N/A Fog Fog
7:35 AM 39.2 °F - 39.2 °F 100% 30.25 in 0.2 mi Calm Calm - N/A Fog Fog
7:55 AM 39.2 °F - 39.2 °F 100% 30.25 in 0.2 mi Calm Calm - N/A Fog Fog
8:15 AM 41.0 °F - 41.0 °F 100% 30.25 in 0.2 mi Calm Calm - N/A Fog Fog
8:35 AM 41.0 °F - 41.0 °F 100% 30.26 in 0.2 mi Calm Calm - N/A Fog Fog
8:55 AM 42.8 °F - 42.8 °F 100% 30.26 in 0.2 mi Calm Calm - N/A Fog Fog
9:15 AM 44.6 °F - 44.6 °F 100% 30.27 in 0.2 mi Calm Calm - N/A Fog Fog
9:35 AM 51.8 °F - 51.8 °F 100% 30.27 in 4.0 mi SSW 4.6 mph - N/A   Scattered Clouds
9:55 AM 57.2 °F - 57.2 °F 100% 30.28 in 10.0 mi SSW 9.2 mph - N/A   Clear
10:15 AM 60.8 °F - 57.2 °F 88% 30.28 in 10.0 mi South 9.2 mph - N/A   Clear
10:35 AM 64.4 °F - 55.4 °F 73% 30.28 in 10.0 mi South 11.5 mph - N/A   Clear
10:55 AM 68.0 °F - 53.6 °F 60% 30.27 in 10.0 mi South 11.5 mph - N/A   Clear
11:15 AM 69.8 °F - 53.6 °F 56% 30.27 in 10.0 mi South 11.5 mph - N/A   Clear
11:35 AM 69.8 °F - 51.8 °F 53% 30.26 in 10.0 mi South 11.5 mph 18.4 mph N/A   Clear
11:55 AM 71.6 °F - 51.8 °F 50% 30.25 in 10.0 mi South 10.4 mph - N/A   Clear
12:15 PM 73.4 °F - 48.2 °F 41% 30.24 in 10.0 mi SSW 9.2 mph 16.1 mph N/A   Clear
12:35 PM 75.2 °F - 46.4 °F 36% 30.24 in 10.0 mi SW 13.8 mph 18.4 mph N/A   Clear
12:55 PM 77.0 °F - 44.6 °F 32% 30.22 in 10.0 mi SW 12.7 mph 18.4 mph N/A   Clear
1:15 PM 77.0 °F - 44.6 °F 32% 30.21 in 10.0 mi SSW 13.8 mph 18.4 mph N/A   Clear
1:35 PM 78.8 °F - 44.6 °F 30% 30.19 in 10.0 mi SSW 13.8 mph 18.4 mph N/A   Clear
1:55 PM 78.8 °F - 42.8 °F 28% 30.18 in 10.0 mi SW 12.7 mph 20.7 mph N/A   Clear
2:15 PM 78.8 °F - 42.8 °F 28% 30.17 in 10.0 mi SSW 9.2 mph 19.6 mph N/A   Clear
2:35 PM 78.8 °F - 42.8 °F 28% 30.16 in 10.0 mi SSW 12.7 mph 17.3 mph N/A   Clear
2:55 PM 78.8 °F - 42.8 °F 28% 30.15 in 10.0 mi SW 16.1 mph - N/A   Clear
3:15 PM 78.8 °F - 42.8 °F 28% 30.15 in 10.0 mi SW 11.5 mph 18.4 mph N/A   Clear
3:35 PM 78.8 °F - 42.8 °F 28% 30.13 in 10.0 mi SSW 12.7 mph 17.3 mph N/A   Clear
3:55 PM 78.8 °F - 42.8 °F 28% 30.13 in 10.0 mi SSW 10.4 mph 20.7 mph N/A   Clear
4:15 PM 78.8 °F - 42.8 °F 28% 30.13 in 10.0 mi SSW 12.7 mph 19.6 mph N/A   Clear
4:35 PM 78.8 °F - 42.8 °F 28% 30.13 in 10.0 mi South 12.7 mph 20.7 mph N/A   Clear
4:55 PM 77.0 °F - 42.8 °F 29% 30.14 in 10.0 mi SSW 11.5 mph 17.3 mph N/A   Clear
5:15 PM 77.0 °F - 42.8 °F 29% 30.13 in 10.0 mi SSW 9.2 mph 18.4 mph N/A   Clear
5:35 PM 75.2 °F - 42.8 °F 31% 30.14 in 10.0 mi SSW 9.2 mph - N/A   Clear
5:55 PM 73.4 °F - 44.6 °F 36% 30.14 in 10.0 mi SSW 8.1 mph - N/A   Clear
6:15 PM 71.6 °F - 44.6 °F 38% 30.15 in 10.0 mi South 5.8 mph - N/A   Clear
6:35 PM 68.0 °F - 44.6 °F 43% 30.15 in 10.0 mi South 3.5 mph - N/A   Clear
6:55 PM 66.2 °F - 46.4 °F 49% 30.15 in 10.0 mi South 3.5 mph - N/A   Clear
7:15 PM 64.4 °F - 46.4 °F 52% 30.15 in 10.0 mi South 6.9 mph - N/A   Clear
7:35 PM 64.4 °F - 50.0 °F 59% 30.16 in 10.0 mi South 6.9 mph - N/A   Clear
7:55 PM 64.4 °F - 50.0 °F 59% 30.16 in 10.0 mi South 8.1 mph - N/A   Clear
8:15 PM 64.4 °F - 50.0 °F 59% 30.16 in 10.0 mi South 10.4 mph - N/A   Clear
8:35 PM 62.6 °F - 50.0 °F 63% 30.16 in 10.0 mi SSW 6.9 mph - N/A   Clear
8:55 PM 60.8 °F - 50.0 °F 68% 30.17 in 10.0 mi SSW 6.9 mph - N/A   Clear
9:15 PM 59.0 °F - 50.0 °F 72% 30.16 in 10.0 mi SSW 6.9 mph - N/A   Clear
9:35 PM 59.0 °F - 50.0 °F 72% 30.16 in 10.0 mi SSW 4.6 mph - N/A   Clear
9:55 PM 59.0 °F - 50.0 °F 72% 30.17 in 10.0 mi SSW 4.6 mph - N/A   Clear
10:15 PM 55.4 °F - 50.0 °F 82% 30.17 in 10.0 mi SSW 4.6 mph - N/A   Clear
10:35 PM 55.4 °F - 50.0 °F 82% 30.17 in 10.0 mi SW 5.8 mph - N/A   Clear
10:55 PM 55.4 °F - 50.0 °F 82% 30.17 in 10.0 mi SW 4.6 mph - N/A   Clear
11:15 PM 53.6 °F - 50.0 °F 88% 30.17 in 10.0 mi WSW 3.5 mph - N/A   Clear
11:35 PM 53.6 °F - 48.2 °F 82% 30.17 in 10.0 mi Calm Calm - N/A   Clear
11:55 PM 50.0 °F - 46.4 °F 87% 30.17 in 10.0 mi Calm Calm - N/A   Clear